TimeMDT,TemperatureF,Dew PointF,Humidity,Sea Level PressureIn,VisibilityMPH,Wind Direction,Wind SpeedMPH,Gust SpeedMPH,PrecipitationIn,Events,Conditions,WindDirDegrees,DateUTC
12:53 AM,61.0,33.1,35,29.68,10.0,SSW,10.4,-,N/A,,Overcast,200,2013-09-27 06:53:00
1:53 AM,60.1,34.0,38,29.65,10.0,South,10.4,-,N/A,,Overcast,170,2013-09-27 07:53:00
2:53 AM,55.9,42.1,60,29.66,6.0,SSW,16.1,40.3,0.01,Rain,Light Rain,200,2013-09-27 08:53:00
3:53 AM,52.0,45.0,77,29.67,10.0,SSW,10.4,-,0.02,Rain,Light Rain,210,2013-09-27 09:53:00
4:53 AM,48.9,46.0,90,29.70,10.0,SW,10.4,-,0.02,Rain,Light Rain,230,2013-09-27 10:53:00
5:53 AM,46.9,44.1,90,29.73,9.0,WSW,4.6,-,0.01,Rain,Light Rain,240,2013-09-27 11:53:00
6:36 AM,46.4,44.6,93,29.94,5.0,Calm,Calm,-,0.02,Rain,Rain,0,2013-09-27 12:36:00
6:48 AM,46.4,44.6,93,29.94,10.0,WSW,3.5,-,0.02,Rain,Light Rain,240,2013-09-27 12:48:00
6:53 AM,46.0,44.1,93,29.78,10.0,SW,3.5,-,0.02,Rain,Light Rain,230,2013-09-27 12:53:00
7:53 AM,45.0,43.0,93,29.80,6.0,SW,5.8,-,0.05,Rain,Light Rain,230,2013-09-27 13:53:00
8:53 AM,44.1,42.1,93,29.83,10.0,WSW,5.8,-,0.01,Rain,Light Rain,240,2013-09-27 14:53:00
9:53 AM,45.0,43.0,93,29.86,10.0,SSW,3.5,-,0.00,,Overcast,210,2013-09-27 15:53:00
10:13 AM,44.6,42.8,93,30.00,10.0,West,4.6,-,N/A,,Overcast,260,2013-09-27 16:13:00
10:53 AM,46.0,42.1,86,29.88,10.0,WSW,4.6,-,N/A,,Overcast,250,2013-09-27 16:53:00
10:57 AM,46.4,42.8,87,30.02,10.0,WSW,6.9,-,N/A,,Overcast,250,2013-09-27 16:57:00
11:13 AM,46.4,42.8,87,30.02,10.0,WSW,8.1,-,0.00,,Overcast,250,2013-09-27 17:13:00
11:53 AM,46.9,33.1,59,29.87,10.0,West,11.5,-,0.00,,Overcast,270,2013-09-27 17:53:00
12:53 PM,46.9,34.0,61,29.88,10.0,WSW,9.2,-,0.00,,Overcast,240,2013-09-27 18:53:00
1:53 PM,48.9,34.0,56,29.87,10.0,WSW,16.1,19.6,0.00,,Overcast,250,2013-09-27 19:53:00
2:53 PM,48.9,33.1,54,29.88,10.0,SW,9.2,18.4,N/A,,Mostly Cloudy,220,2013-09-27 20:53:00
3:53 PM,52.0,28.0,40,29.90,10.0,West,13.8,23.0,N/A,,Scattered Clouds,260,2013-09-27 21:53:00
4:53 PM,51.1,25.0,36,29.94,10.0,West,17.3,-,N/A,,Partly Cloudy,260,2013-09-27 22:53:00
5:53 PM,50.0,25.0,38,29.96,10.0,West,10.4,-,N/A,,Scattered Clouds,280,2013-09-27 23:53:00
6:53 PM,48.0,23.0,37,30.01,10.0,WNW,12.7,-,N/A,,Clear,300,2013-09-28 00:53:00
7:53 PM,43.0,27.0,53,30.06,10.0,NNW,4.6,-,N/A,,Clear,330,2013-09-28 01:53:00
8:53 PM,39.9,30.0,68,30.11,10.0,North,4.6,-,N/A,,Clear,10,2013-09-28 02:53:00
9:53 PM,37.0,30.9,79,30.14,10.0,Calm,Calm,-,N/A,,Clear,0,2013-09-28 03:53:00
10:53 PM,36.0,30.9,82,30.15,10.0,Calm,Calm,-,N/A,,Clear,0,2013-09-28 04:53:00
11:53 PM,37.0,28.9,73,30.14,10.0,Calm,Calm,-,N/A,,Clear,0,2013-09-28 05:53:00